Flag for Germany Weather past 2 weeks in Langen, Hesse, Germany

Now
84 °F

Scattered clouds.


Feels Like: 87 °F
Forecast: 65 / 89 °F
Wind: 5 mph from Southeast

Location: Frankfurt-M-Flughafen Airport

Current Time: Aug 29, 2015 at 4:51:35 PM

Latest Report: Aug 29, 2015 at 4:20 PM


Visibility: N/A

Pressure: 30.12 "Hg

Humidity: 55%

Dew point: 66 °F

Location of LangenLocation

Historic Weather in Langen — Graph

°F

Langen temperature yesterday

Maximum temperature yesterday: 68 °F (at 4:50 PM)
Minimum temperature yesterday: 59 °F (at 5:20 AM)
Average temperature yesterday: 63 °F

Past Weeks' High & Low Weather Summary

 TemperatureHumidityPressure
High84 °F (Aug 27, 2:50 PM)100% (Aug 15, 4:20 AM)30.27 "Hg (Aug 15, 4:20 AM)
Low50 °F (Aug 19, 4:50 AM)21% (Aug 22, 3:20 PM)29.68 "Hg (Aug 23, 5:20 PM)
Average66 °F69%29.98 "Hg
* Reported Aug 14 3:20 PM — Aug 29 3:50 PM, Langen, Weather by CustomWeather, © 2015

Note: Actual official high and low records may vary slightly from our data, if they occured in-between our weather recording intervals... More about our weather records

Advertising

Langen weather history for previous 24 hours

 ConditionsComfort  
Time TempWeatherWind HumidityBarometerVisibility
3:50 PM
Sat, Aug 29
82 °FScattered clouds.5 mph55%30.12 "HgN/A
3:20 PM81 °FScattered clouds.5 mph58%30.15 "HgN/A
2:50 PM81 °FScattered clouds.2 mph58%30.15 "HgN/A
2:20 PM81 °FPassing clouds.3 mph62%30.15 "HgN/A
1:50 PM79 °FPassing clouds.3 mph61%30.18 "HgN/A
1:20 PM79 °FScattered clouds.2 mph61%30.18 "HgN/A
12:50 PM75 °FScattered clouds.1 mph65%30.18 "HgN/A
11:50 AM72 °FScattered clouds.3 mph73%30.21 "HgN/A
11:20 AM70 °FScattered clouds.5 mph73%30.21 "HgN/A
10:50 AM68 °FScattered clouds.6 mph78%30.21 "HgN/A
9:50 AM63 °FBroken clouds.7 mph88%30.21 "HgN/A
9:20 AM63 °FPartly sunny.9 mph94%30.21 "HgN/A
8:50 AM61 °FBroken clouds.7 mph94%30.21 "Hg6 mi
7:50 AM61 °FFog.8 mph94%30.21 "Hg2 mi
7:20 AM61 °FFog.8 mph94%30.18 "Hg2 mi
6:50 AM59 °FFog.8 mph100%30.18 "Hg2 mi
6:20 AM59 °FFog.9 mph100%30.18 "Hg2 mi
5:50 AM59 °FFog.7 mph94%30.21 "Hg1 mi
4:50 AM59 °FSnow. Overcast.5 mph94%30.18 "Hg1 mi
4:20 AM59 °FPassing clouds.5 mph100%30.18 "Hg1 mi
3:50 AM57 °FCool.5 mph94%30.18 "HgN/A
3:20 AM59 °FCool.5 mph94%30.18 "HgN/A
2:50 AM57 °FLight fog.5 mph100%30.18 "HgN/A
2:20 AM57 °FFog.5 mph94%30.18 "HgN/A
1:50 AM55 °FFog.1 mph100%30.18 "HgN/A
1:20 AM57 °FFog.No wind94%30.18 "HgN/A
12:50 AM57 °FLight fog.5 mph100%30.18 "HgN/A
12:20 AM57 °FFog.2 mph100%30.18 "HgN/A
11:50 PM
Fri, Aug 28
59 °FFog.1 mph94%30.18 "HgN/A
11:20 PM59 °FFog.2 mph94%30.18 "HgN/A
10:50 PM59 °FLight fog.2 mph100%30.18 "HgN/A
10:20 PM61 °FLight fog.2 mph94%30.15 "HgN/A
9:50 PM61 °FLight fog.3 mph94%30.15 "HgN/A
9:20 PM63 °FPassing clouds.5 mph94%30.15 "HgN/A
8:50 PM63 °FFog.2 mph94%30.15 "HgN/A
8:20 PM64 °FPassing clouds.3 mph88%30.12 "HgN/A
7:50 PM66 °FScattered clouds.6 mph88%30.12 "HgN/A
7:20 PM66 °FScattered clouds.5 mph88%30.12 "HgN/A
6:50 PM66 °FScattered clouds.6 mph88%30.12 "HgN/A
6:20 PM68 °FBroken clouds.6 mph83%30.12 "HgN/A
5:50 PM68 °FBroken clouds.6 mph78%30.09 "HgN/A
5:20 PM68 °FBroken clouds.6 mph78%30.09 "HgN/A
4:50 PM68 °FBroken clouds.2 mph78%30.09 "HgN/A
4:20 PM66 °FPartly sunny.5 mph83%30.09 "HgN/A
Weather by CustomWeather, © 2015

See weather overviewHow to use our weather pages